Forside
METAR-TAF:

METAR-TAF

Lufthavne :

Joliet Regional Airport

Joliet, Illinois, USA

Breddekreds: 41-31-05N, længdekreds: 088-10-31W, højde: 177 m

Aktuelle vejr

Denne rapport blev lavet for 25 minutter siden, kl. 13:35 UTC
Vind stille
Temperatur 9°C
Fugtighed 57%
Tryk 1028 hPa
Sigt: 16.1 km
skyfri

METAR: KJOT 111335Z AUTO 00000KT 10SM CLR 09/01 A3035 RMK AO2 T00920013

Tid: 09:00 (14:00 UTC)


TAF: fraværende

Vejrobservationer og prognoser fra mere end 4000 lufthavne (METAR og TAF).

De gule og røde prikker repræsenterer de meteorologiske stationer.

Flyt musen over at se navnet på stationen.

Så klik over at se vejr observationer og prognoser.

At skifte det kort: Klik på de grønne knapper med et sort kors for at zoome ind; på den grønne knap med en bindestreg for at zoome ud; eller på de grønne pile for tilstødende kort.


METAR-TAF: